QPF
0.00 0.00 0.00 0.00 0.00 0.00 0.01 0.00 0.01 0.01 0.01 0.01 0.01 0.01 0.01 0.01 0.01 0.02 0.01 0.01 0.00 0.01 0.02 0.03 0.03 0.02 0.02 0.02 0.01 0.01 0.01 0.00 0.00 0.00 0.01 0.02 0.03 0.04 0.04 0.03 0.03 0.04 0.03
0.01 0.01 0.00 0.01 0.00 0.00 0.01 0.01 0.01 0.02 0.02 0.01 0.01 0.01 0.02 0.03 0.02 0.02 0.02 0.01 0.01 0.01 0.01 0.03 0.04 0.04 0.03 0.03 0.02 0.01 0.00 0.00 0.00 0.00 0.00 0.00 0.01 0.02 0.03 0.03 0.02 0.02 0.01
0.01 0.01 0.01 0.01 0.01 0.01 0.01 0.01 0.01 0.02 0.02 0.03 0.03 0.04 0.05 0.05 0.05 0.04 0.03 0.03 0.02 0.01 0.01 0.02 0.04 0.05 0.06 0.05 0.04 0.02 0.01 0.00 0.00 0.00 0.00 0.00 0.00 0.01 0.01 0.01 0.01 0.01 0.01
0.03 0.04 0.04 0.03 0.03 0.04 0.04 0.04 0.05 0.06 0.07 0.09 0.09 0.11 0.11 0.09 0.08 0.05 0.06 0.06 0.05 0.03 0.02 0.02 0.03 0.04 0.06 0.08 0.08 0.08 0.05 0.02 0.01 0.00 0.00 0.00 0.00 0.00 0.00 0.00 0.00 0.00 0.00
0.12 0.14 0.13 0.11 0.12 0.11 0.10 0.10 0.11 0.11 0.13 0.15 0.17 0.15 0.13 0.09 0.07 0.07 0.10 0.08 0.06 0.04 0.05 0.05 0.03 0.04 0.10 0.16 0.16 0.13 0.10 0.06 0.02 0.01 0.00 0.00 0.00 0.00 0.00 0.00 0.00 0.00 0.00
0.19 0.25 0.26 0.24 0.23 0.21 0.18 0.18 0.20 0.21 0.21 0.21 0.21 0.15 0.10 0.09 0.08 0.07 0.06 0.05 0.04 0.04 0.05 0.07 0.08 0.12 0.19 0.23 0.19 0.15 0.14 0.10 0.05 0.02 0.01 0.00 0.00 0.00 0.00 0.00 0.00 0.00 0.00
0.21 0.32 0.35 0.35 0.37 0.36 0.31 0.33 0.33 0.29 0.24 0.24 0.22 0.12 0.07 0.06 0.04 0.02 0.02 0.02 0.02 0.02 0.05 0.08 0.09 0.13 0.14 0.19 0.18 0.13 0.12 0.11 0.09 0.06 0.03 0.01 0.00 0.00 0.00 0.00 0.00 0.00 0.00
0.23 0.36 0.43 0.42 0.44 0.42 0.35 0.32 0.33 0.27 0.19 0.23 0.24 0.22 0.14 0.07 0.03 0.02 0.03 0.05 0.06 0.09 0.10 0.10 0.09 0.11 0.11 0.14 0.13 0.11 0.12 0.15 0.14 0.12 0.08 0.04 0.02 0.01 0.01 0.00 0.00 0.00 0.00
0.16 0.26 0.31 0.37 0.40 0.40 0.31 0.28 0.30 0.27 0.20 0.21 0.27 0.29 0.22 0.14 0.09 0.06 0.09 0.15 0.20 0.20 0.17 0.16 0.15 0.13 0.17 0.21 0.25 0.26 0.18 0.19 0.19 0.22 0.18 0.10 0.04 0.02 0.02 0.02 0.02 0.01 0.01
0.08 0.13 0.16 0.21 0.24 0.26 0.23 0.22 0.24 0.23 0.20 0.15 0.17 0.19 0.20 0.19 0.18 0.13 0.09 0.14 0.23 0.25 0.23 0.22 0.20 0.17 0.20 0.25 0.29 0.33 0.25 0.19 0.18 0.24 0.23 0.17 0.11 0.05 0.04 0.05 0.07 0.07 0.04
0.03 0.06 0.09 0.11 0.14 0.15 0.14 0.14 0.14 0.11 0.10 0.10 0.13 0.16 0.18 0.22 0.25 0.24 0.17 0.11 0.08 0.11 0.13 0.14 0.16 0.20 0.24 0.27 0.32 0.35 0.31 0.31 0.30 0.26 0.23 0.20 0.16 0.12 0.08 0.08 0.12 0.15 0.13
0.02 0.04 0.05 0.05 0.07 0.08 0.08 0.07 0.06 0.06 0.06 0.08 0.11 0.15 0.19 0.25 0.31 0.32 0.26 0.18 0.10 0.05 0.06 0.07 0.09 0.15 0.20 0.22 0.23 0.24 0.24 0.29 0.28 0.26 0.20 0.15 0.11 0.10 0.10 0.11 0.15 0.18 0.19
0.02 0.03 0.04 0.04 0.05 0.06 0.05 0.04 0.03 0.03 0.03 0.05 0.07 0.12 0.17 0.22 0.26 0.28 0.25 0.20 0.14 0.09 0.09 0.10 0.10 0.13 0.14 0.14 0.12 0.10 0.08 0.11 0.12 0.13 0.12 0.12 0.10 0.08 0.06 0.06 0.09 0.11 0.14
0.04 0.05 0.05 0.06 0.06 0.05 0.05 0.05 0.04 0.04 0.04 0.05 0.07 0.10 0.16 0.19 0.21 0.24 0.24 0.21 0.16 0.12 0.10 0.10 0.09 0.08 0.06 0.06 0.04 0.02 0.01 0.02 0.02 0.02 0.03 0.03 0.04 0.04 0.04 0.04 0.04 0.03 0.04
0.07 0.08 0.10 0.11 0.12 0.12 0.11 0.09 0.07 0.07 0.08 0.08 0.09 0.11 0.14 0.17 0.20 0.22 0.21 0.18 0.15 0.12 0.09 0.07 0.05 0.04 0.02 0.01 0.00 0.00 0.00 0.00 0.00 0.00 0.00 0.00 0.00 0.00 0.01 0.01 0.01 0.01 0.01
0.07 0.09 0.12 0.16 0.16 0.15 0.15 0.12 0.10 0.10 0.12 0.12 0.12 0.14 0.16 0.17 0.16 0.18 0.16 0.13 0.10 0.06 0.06 0.04 0.03 0.01 0.00 0.00 0.00 0.00 0.00 0.00 0.00 0.00 0.00 0.00 0.00 0.00 0.00 0.00 0.00 0.00 0.00
0.05 0.06 0.10 0.14 0.17 0.19 0.20 0.19 0.17 0.16 0.14 0.14 0.16 0.18 0.18 0.16 0.15 0.14 0.11 0.09 0.05 0.02 0.03 0.02 0.01 0.00 0.00 0.00 0.00 0.00 0.00 0.00 0.00 0.00 0.00 0.00 0.00 0.00 0.00 0.00 0.00 0.00 0.00
0.06 0.08 0.13 0.16 0.20 0.24 0.29 0.29 0.23 0.21 0.19 0.18 0.19 0.19 0.16 0.11 0.08 0.06 0.05 0.03 0.02 0.02 0.01 0.01 0.00 0.00 0.00 0.00 0.00 0.00 0.00 0.00 0.00 0.00 0.00 0.00 0.00 0.00 0.00 0.00 0.00 0.00 0.00
0.08 0.13 0.19 0.27 0.34 0.35 0.32 0.31 0.28 0.26 0.23 0.18 0.15 0.12 0.08 0.05 0.02 0.02 0.02 0.01 0.01 0.01 0.00 0.00 0.00 0.00 0.00 0.00 0.00 0.00 0.00 0.00 0.00 0.01 0.01 0.01 0.00 0.00 0.00 0.00 0.00 0.00 0.00
0.07 0.12 0.19 0.30 0.39 0.41 0.41 0.38 0.32 0.25 0.18 0.13 0.08 0.05 0.03 0.02 0.01 0.00 0.00 0.00 0.00 0.00 0.00 0.00 0.00 0.00 0.00 0.00 0.00 0.00 0.00 0.00 0.00 0.00 0.01 0.01 0.01 0.01 0.01 0.01 0.01 0.00 0.00
0.09 0.15 0.23 0.32 0.42 0.46 0.46 0.41 0.29 0.19 0.12 0.07 0.04 0.02 0.01 0.00 0.00 0.00 0.00 0.00 0.00 0.00 0.00 0.00 0.00 0.00 0.00 0.00 0.00 0.00 0.00 0.00 0.00 0.00 0.00 0.00 0.00 0.01 0.01 0.01 0.01 0.01 0.00
0.07 0.12 0.17 0.21 0.23 0.28 0.33 0.26 0.16 0.09 0.04 0.02 0.01 0.00 0.00 0.00 0.00 0.00 0.00 0.00 0.00 0.00 0.00 0.00 0.00 0.00 0.00 0.00 0.00 0.00 0.00 0.00 0.00 0.00 0.00 0.00 0.00 0.00 0.00 0.00 0.01 0.01 0.01
0.03 0.04 0.06 0.08 0.09 0.09 0.09 0.06 0.05 0.03 0.01 0.01 0.00 0.00 0.00 0.00 0.00 0.00 0.00 0.00 0.00 0.00 0.00 0.00 0.00 0.00 0.00 0.00 0.00 0.00 0.00 0.00 0.00 0.00 0.00 0.00 0.00 0.00 0.00 0.01 0.01 0.01 0.01
0.01 0.01 0.02 0.02 0.03 0.03 0.02 0.02 0.01 0.01 0.00 0.00 0.00 0.00 0.00 0.00 0.00 0.00 0.00 0.00 0.00 0.00 0.00 0.00 0.00 0.00 0.00 0.00 0.00 0.00 0.00 0.00 0.00 0.00 0.00 0.00 0.00 0.00 0.00 0.01 0.01 0.01 0.02
0.00 0.00 0.00 0.00 0.00 0.00 0.00 0.00 0.00 0.00 0.00 0.00 0.00 0.00 0.00 0.00 0.00 0.00 0.00 0.00 0.00 0.00 0.00 0.00 0.00 0.00 0.00 0.00 0.00 0.00 0.00 0.00 0.00 0.00 0.00 0.00 0.00 0.00 0.01 0.01 0.01 0.01 0.03
0.00 0.00 0.00 0.00 0.00 0.00 0.00 0.00 0.00 0.00 0.00 0.00 0.00 0.00 0.00 0.00 0.00 0.00 0.00 0.00 0.00 0.00 0.00 0.00 0.00 0.00 0.00 0.00 0.00 0.00 0.00 0.00 0.00 0.00 0.00 0.00 0.00 0.00 0.00 0.01 0.01 0.01 0.02
MSLP
1012.93 1012.91 1012.82 1012.70 1012.59 1012.53 1012.53 1012.59 1012.69 1012.81 1012.91 1012.97 1012.97 1012.91 1012.80 1012.67 1012.52 1012.37 1012.22 1012.10 1011.99 1011.90 1011.83 1011.80 1011.82 1011.90 1012.04 1012.23 1012.47 1012.73 1013.01 1013.29 1013.55 1013.82 1014.08 1014.35 1014.63 1014.93 1015.23 1015.54 1015.83 1016.11 1016.36
1012.27 1012.26 1012.21 1012.12 1012.05 1012.01 1012.02 1012.08 1012.18 1012.29 1012.39 1012.46 1012.48 1012.44 1012.35 1012.23 1012.07 1011.90 1011.72 1011.56 1011.42 1011.31 1011.24 1011.22 1011.26 1011.36 1011.53 1011.74 1011.98 1012.24 1012.50 1012.76 1013.01 1013.27 1013.52 1013.80 1014.10 1014.41 1014.73 1015.04 1015.34 1015.62 1015.88
1011.53 1011.53 1011.50 1011.46 1011.43 1011.43 1011.46 1011.53 1011.64 1011.75 1011.86 1011.94 1011.98 1011.96 1011.89 1011.76 1011.60 1011.40 1011.19 1010.98 1010.80 1010.65 1010.56 1010.54 1010.59 1010.72 1010.90 1011.13 1011.39 1011.66 1011.92 1012.17 1012.42 1012.67 1012.93 1013.22 1013.53 1013.86 1014.20 1014.54 1014.86 1015.16 1015.43
1010.77 1010.76 1010.75 1010.75 1010.77 1010.80 1010.87 1010.96 1011.08 1011.20 1011.31 1011.40 1011.46 1011.46 1011.41 1011.29 1011.11 1010.89 1010.64 1010.38 1010.14 1009.94 1009.82 1009.77 1009.82 1009.96 1010.16 1010.41 1010.69 1010.97 1011.24 1011.51 1011.76 1012.02 1012.29 1012.60 1012.93 1013.28 1013.65 1014.02 1014.37 1014.69 1015.00
1010.03 1010.00 1010.00 1010.03 1010.09 1010.16 1010.26 1010.37 1010.50 1010.62 1010.75 1010.85 1010.92 1010.95 1010.91 1010.81 1010.63 1010.39 1010.10 1009.79 1009.49 1009.24 1009.06 1008.98 1009.00 1009.13 1009.34 1009.60 1009.90 1010.19 1010.49 1010.76 1011.03 1011.31 1011.60 1011.92 1012.28 1012.66 1013.06 1013.46 1013.85 1014.21 1014.55
1009.36 1009.29 1009.29 1009.34 1009.42 1009.53 1009.65 1009.77 1009.90 1010.04 1010.17 1010.28 1010.38 1010.43 1010.42 1010.34 1010.18 1009.93 1009.62 1009.27 1008.92 1008.61 1008.37 1008.24 1008.22 1008.32 1008.51 1008.77 1009.07 1009.38 1009.69 1009.98 1010.27 1010.57 1010.88 1011.22 1011.60 1012.00 1012.43 1012.86 1013.28 1013.68 1014.05
1008.79 1008.68 1008.66 1008.71 1008.81 1008.93 1009.06 1009.19 1009.32 1009.45 1009.59 1009.72 1009.84 1009.92 1009.95 1009.91 1009.77 1009.54 1009.23 1008.86 1008.47 1008.11 1007.82 1007.62 1007.55 1007.60 1007.76 1007.99 1008.28 1008.59 1008.91 1009.21 1009.52 1009.83 1010.16 1010.51 1010.90 1011.32 1011.76 1012.21 1012.66 1013.08 1013.48
1008.34 1008.19 1008.14 1008.17 1008.26 1008.38 1008.51 1008.64 1008.76 1008.89 1009.03 1009.18 1009.32 1009.45 1009.52 1009.53 1009.44 1009.25 1008.95 1008.59 1008.19 1007.79 1007.45 1007.20 1007.06 1007.05 1007.16 1007.35 1007.60 1007.89 1008.19 1008.50 1008.81 1009.13 1009.47 1009.83 1010.22 1010.64 1011.08 1011.53 1011.98 1012.41 1012.82
1008.01 1007.81 1007.72 1007.73 1007.80 1007.90 1008.01 1008.13 1008.25 1008.38 1008.52 1008.68 1008.85 1009.02 1009.15 1009.21 1009.18 1009.04 1008.79 1008.45 1008.06 1007.65 1007.28 1006.98 1006.79 1006.71 1006.75 1006.88 1007.07 1007.32 1007.60 1007.89 1008.19 1008.50 1008.83 1009.19 1009.58 1009.98 1010.41 1010.85 1011.27 1011.69 1012.09
1007.78 1007.53 1007.40 1007.36 1007.40 1007.47 1007.57 1007.68 1007.79 1007.91 1008.07 1008.24 1008.44 1008.64 1008.82 1008.94 1008.97 1008.89 1008.70 1008.41 1008.05 1007.66 1007.28 1006.96 1006.72 1006.58 1006.54 1006.59 1006.72 1006.91 1007.14 1007.39 1007.67 1007.97 1008.29 1008.63 1009.00 1009.39 1009.79 1010.19 1010.59 1010.97 1011.33
1007.61 1007.31 1007.13 1007.04 1007.04 1007.08 1007.16 1007.26 1007.37 1007.50 1007.67 1007.86 1008.08 1008.31 1008.52 1008.69 1008.77 1008.76 1008.63 1008.41 1008.10 1007.75 1007.40 1007.07 1006.80 1006.61 1006.51 1006.49 1006.54 1006.65 1006.82 1007.03 1007.27 1007.54 1007.84 1008.17 1008.52 1008.88 1009.25 1009.62 1009.97 1010.31 1010.63
1007.49 1007.13 1006.88 1006.74 1006.69 1006.70 1006.76 1006.86 1006.98 1007.13 1007.31 1007.53 1007.77 1008.01 1008.25 1008.44 1008.57 1008.61 1008.55 1008.39 1008.16 1007.87 1007.55 1007.25 1006.98 1006.76 1006.61 1006.53 1006.51 1006.55 1006.65 1006.80 1007.00 1007.24 1007.52 1007.83 1008.16 1008.50 1008.84 1009.17 1009.48 1009.77 1010.04
1007.38 1006.95 1006.63 1006.42 1006.32 1006.30 1006.36 1006.46 1006.61 1006.79 1007.00 1007.24 1007.49 1007.75 1007.99 1008.19 1008.34 1008.41 1008.40 1008.32 1008.16 1007.95 1007.71 1007.46 1007.22 1007.00 1006.83 1006.70 1006.62 1006.60 1006.63 1006.72 1006.88 1007.08 1007.34 1007.63 1007.95 1008.27 1008.59 1008.89 1009.16 1009.40 1009.62
1007.27 1006.77 1006.36 1006.09 1005.94 1005.90 1005.95 1006.08 1006.27 1006.49 1006.74 1007.00 1007.27 1007.52 1007.75 1007.94 1008.09 1008.18 1008.21 1008.19 1008.11 1007.99 1007.84 1007.67 1007.49 1007.31 1007.14 1006.99 1006.87 1006.79 1006.77 1006.81 1006.91 1007.09 1007.32 1007.59 1007.89 1008.21 1008.50 1008.78 1009.02 1009.22 1009.38
1007.19 1006.60 1006.11 1005.77 1005.56 1005.50 1005.57 1005.73 1005.97 1006.24 1006.54 1006.83 1007.11 1007.35 1007.56 1007.73 1007.86 1007.95 1008.01 1008.03 1008.03 1008.01 1007.96 1007.89 1007.79 1007.67 1007.53 1007.39 1007.25 1007.14 1007.07 1007.06 1007.12 1007.26 1007.46 1007.71 1008.00 1008.29 1008.57 1008.82 1009.03 1009.19 1009.30
1007.13 1006.47 1005.92 1005.50 1005.26 1005.18 1005.26 1005.46 1005.75 1006.08 1006.43 1006.76 1007.04 1007.28 1007.46 1007.59 1007.69 1007.76 1007.83 1007.90 1007.97 1008.04 1008.09 1008.13 1008.13 1008.09 1008.01 1007.90 1007.77 1007.64 1007.53 1007.48 1007.50 1007.59 1007.76 1007.98 1008.23 1008.50 1008.76 1008.98 1009.15 1009.26 1009.33
1007.15 1006.44 1005.83 1005.37 1005.09 1005.01 1005.10 1005.34 1005.67 1006.06 1006.45 1006.81 1007.10 1007.32 1007.48 1007.57 1007.64 1007.69 1007.76 1007.85 1007.98 1008.12 1008.28 1008.42 1008.53 1008.58 1008.57 1008.50 1008.39 1008.26 1008.13 1008.04 1008.01 1008.06 1008.17 1008.34 1008.55 1008.78 1008.99 1009.17 1009.30 1009.36 1009.36
1007.27 1006.55 1005.91 1005.43 1005.13 1005.04 1005.14 1005.40 1005.77 1006.20 1006.62 1007.00 1007.30 1007.52 1007.64 1007.70 1007.73 1007.76 1007.82 1007.93 1008.09 1008.30 1008.54 1008.77 1008.97 1009.11 1009.17 1009.16 1009.07 1008.95 1008.81 1008.68 1008.61 1008.59 1008.64 1008.75 1008.90 1009.06 1009.21 1009.33 1009.39 1009.39 1009.33
1007.50 1006.81 1006.19 1005.70 1005.40 1005.30 1005.41 1005.67 1006.06 1006.51 1006.95 1007.34 1007.65 1007.85 1007.95 1007.99 1007.98 1007.99 1008.03 1008.14 1008.33 1008.58 1008.87 1009.17 1009.44 1009.65 1009.77 1009.81 1009.75 1009.64 1009.49 1009.33 1009.21 1009.13 1009.11 1009.14 1009.20 1009.28 1009.36 1009.40 1009.39 1009.31 1009.17
1007.83 1007.22 1006.65 1006.20 1005.91 1005.81 1005.90 1006.15 1006.53 1006.97 1007.41 1007.80 1008.10 1008.29 1008.38 1008.40 1008.38 1008.36 1008.39 1008.49 1008.67 1008.94 1009.26 1009.59 1009.91 1010.16 1010.33 1010.40 1010.37 1010.26 1010.10 1009.92 1009.75 1009.61 1009.51 1009.46 1009.44 1009.43 1009.41 1009.36 1009.26 1009.11 1008.88
1008.22 1007.73 1007.25 1006.86 1006.59 1006.49 1006.56 1006.79 1007.13 1007.54 1007.95 1008.33 1008.61 1008.80 1008.89 1008.90 1008.86 1008.84 1008.85 1008.93 1009.11 1009.36 1009.67 1010.01 1010.33 1010.60 1010.79 1010.88 1010.86 1010.76 1010.60 1010.40 1010.19 1009.99 1009.83 1009.69 1009.58 1009.48 1009.37 1009.23 1009.05 1008.81 1008.51
1008.60 1008.27 1007.91 1007.59 1007.36 1007.27 1007.31 1007.49 1007.79 1008.15 1008.52 1008.86 1009.14 1009.32 1009.41 1009.43 1009.41 1009.38 1009.38 1009.45 1009.59 1009.81 1010.09 1010.40 1010.70 1010.95 1011.14 1011.23 1011.22 1011.12 1010.96 1010.74 1010.51 1010.27 1010.05 1009.85 1009.67 1009.48 1009.29 1009.07 1008.81 1008.50 1008.13
1008.90 1008.74 1008.52 1008.29 1008.12 1008.03 1008.05 1008.19 1008.42 1008.72 1009.05 1009.36 1009.62 1009.81 1009.92 1009.96 1009.96 1009.94 1009.94 1009.99 1010.10 1010.28 1010.50 1010.76 1011.01 1011.23 1011.39 1011.46 1011.45 1011.36 1011.19 1010.98 1010.73 1010.48 1010.22 1009.98 1009.74 1009.50 1009.24 1008.95 1008.63 1008.25 1007.83
1009.05 1009.06 1008.98 1008.86 1008.75 1008.68 1008.68 1008.78 1008.96 1009.20 1009.48 1009.77 1010.03 1010.23 1010.37 1010.45 1010.49 1010.49 1010.51 1010.54 1010.62 1010.75 1010.92 1011.11 1011.30 1011.46 1011.58 1011.63 1011.61 1011.51 1011.36 1011.15 1010.91 1010.66 1010.39 1010.13 1009.86 1009.58 1009.28 1008.95 1008.58 1008.16 1007.70
1008.99 1009.16 1009.23 1009.22 1009.18 1009.15 1009.15 1009.22 1009.36 1009.56 1009.81 1010.09 1010.35 1010.58 1010.77 1010.90 1010.98 1011.03 1011.06 1011.10 1011.16 1011.24 1011.35 1011.47 1011.60 1011.70 1011.77 1011.79 1011.76 1011.67 1011.52 1011.33 1011.11 1010.87 1010.62 1010.35 1010.08 1009.78 1009.46 1009.11 1008.72 1008.28 1007.79
1008.73 1009.04 1009.24 1009.35 1009.39 1009.41 1009.43 1009.50 1009.62 1009.81 1010.05 1010.32 1010.60 1010.87 1011.11 1011.30 1011.44 1011.54 1011.60 1011.65 1011.70 1011.75 1011.81 1011.88 1011.94 1011.99 1012.02 1012.01 1011.96 1011.87 1011.74 1011.57 1011.38 1011.16 1010.93 1010.68 1010.41 1010.12 1009.80 1009.44 1009.04 1008.59 1008.09
Thickness
5784 5784 5784 5783 5782 5781 5780 5778 5776 5774 5772 5771 5770 5770 5770 5770 5771 5772 5774 5775 5775 5775 5775 5773 5771 5769 5766 5763 5760 5757 5755 5752 5750 5748 5745 5743 5741 5739 5737 5735 5733 5730 5727
5783 5781 5781 5781 5781 5780 5779 5777 5775 5773 5771 5770 5768 5769 5769 5770 5770 5771 5772 5774 5775 5776 5775 5773 5771 5769 5766 5764 5761 5758 5755 5753 5751 5748 5746 5744 5742 5741 5739 5736 5733 5731 5728
5782 5780 5779 5778 5779 5778 5776 5775 5773 5771 5769 5767 5765 5766 5766 5767 5768 5769 5770 5771 5772 5774 5774 5772 5771 5768 5766 5764 5761 5758 5756 5753 5751 5748 5746 5744 5742 5741 5739 5737 5734 5731 5728
5780 5778 5775 5774 5774 5772 5771 5769 5768 5765 5763 5761 5759 5760 5760 5761 5762 5764 5765 5766 5768 5770 5771 5770 5769 5767 5765 5763 5760 5758 5756 5753 5750 5748 5746 5744 5742 5740 5738 5736 5734 5731 5728
5775 5773 5771 5770 5767 5764 5764 5763 5762 5759 5756 5754 5753 5753 5753 5754 5755 5757 5759 5760 5762 5764 5767 5767 5767 5766 5764 5762 5760 5758 5755 5753 5750 5747 5745 5743 5741 5739 5737 5735 5733 5730 5728
5768 5767 5765 5763 5759 5756 5755 5755 5752 5751 5749 5747 5747 5747 5748 5748 5749 5750 5752 5753 5755 5757 5760 5762 5763 5763 5762 5762 5760 5757 5754 5752 5749 5746 5744 5742 5740 5738 5736 5734 5732 5729 5727
5761 5759 5758 5757 5753 5749 5748 5746 5744 5742 5742 5741 5735 5734 5740 5742 5744 5746 5746 5746 5747 5750 5753 5756 5758 5759 5759 5760 5759 5757 5754 5752 5748 5745 5743 5741 5739 5737 5734 5732 5730 5728 5726
5755 5754 5752 5750 5748 5744 5742 5740 5739 5736 5736 5734 5727 5722 5721 5728 5736 5741 5740 5739 5740 5743 5746 5750 5751 5752 5754 5755 5756 5754 5753 5749 5746 5743 5741 5739 5737 5735 5733 5731 5729 5727 5725
5748 5747 5746 5745 5743 5741 5739 5738 5736 5731 5729 5729 5725 5718 5711 5713 5721 5729 5732 5731 5731 5733 5737 5741 5744 5746 5747 5749 5750 5749 5748 5746 5744 5742 5740 5737 5735 5733 5731 5730 5727 5725 5723
5739 5739 5739 5738 5736 5735 5734 5734 5733 5730 5726 5723 5721 5719 5716 5714 5709 5712 5719 5722 5723 5725 5728 5731 5734 5737 5740 5743 5743 5743 5743 5742 5741 5739 5737 5735 5733 5731 5729 5728 5726 5725 5723
5730 5731 5731 5730 5729 5728 5728 5727 5726 5725 5723 5719 5715 5712 5710 5708 5706 5702 5702 5708 5712 5716 5719 5723 5725 5728 5732 5734 5735 5735 5736 5736 5736 5735 5734 5733 5731 5730 5728 5727 5725 5723 5722
5722 5723 5723 5722 5722 5721 5720 5719 5719 5717 5716 5713 5711 5707 5704 5701 5699 5697 5695 5696 5699 5705 5710 5714 5716 5719 5722 5724 5726 5727 5728 5729 5729 5730 5729 5728 5728 5727 5726 5725 5723 5722 5720
5711 5713 5714 5714 5714 5713 5712 5711 5709 5708 5706 5704 5702 5700 5698 5696 5694 5691 5688 5688 5690 5694 5699 5702 5705 5708 5711 5713 5715 5717 5719 5720 5721 5722 5722 5722 5722 5721 5721 5720 5719 5718 5717
5701 5704 5705 5706 5706 5705 5704 5701 5699 5697 5696 5694 5693 5691 5689 5688 5687 5684 5683 5681 5681 5682 5685 5687 5692 5696 5699 5702 5705 5707 5709 5711 5713 5713 5713 5714 5714 5714 5714 5713 5712 5711 5710
5690 5693 5695 5696 5696 5695 5693 5691 5688 5687 5686 5684 5683 5682 5681 5680 5679 5679 5679 5678 5676 5672 5672 5675 5679 5684 5688 5692 5695 5698 5700 5702 5704 5704 5705 5705 5705 5705 5705 5704 5704 5703 5702
5677 5680 5682 5684 5684 5684 5682 5680 5678 5676 5675 5674 5674 5673 5673 5672 5672 5672 5673 5674 5674 5670 5665 5666 5669 5674 5679 5683 5686 5689 5691 5693 5695 5696 5696 5695 5695 5695 5696 5695 5694 5694 5694
5665 5667 5669 5671 5672 5672 5671 5669 5668 5667 5666 5665 5665 5665 5665 5665 5664 5665 5666 5667 5668 5666 5660 5658 5662 5665 5669 5672 5675 5679 5681 5683 5685 5686 5686 5686 5685 5685 5685 5685 5684 5684 5684
5653 5655 5657 5659 5660 5660 5660 5659 5658 5658 5657 5656 5656 5656 5656 5657 5657 5658 5660 5660 5660 5659 5656 5651 5652 5655 5659 5662 5665 5668 5670 5672 5672 5674 5675 5675 5674 5674 5675 5674 5674 5674 5674
5642 5643 5645 5646 5647 5648 5649 5649 5647 5647 5647 5646 5647 5647 5647 5648 5649 5651 5652 5652 5652 5651 5649 5645 5643 5646 5649 5652 5655 5657 5658 5659 5661 5662 5662 5662 5663 5663 5664 5664 5664 5664 5664
5632 5633 5633 5634 5636 5637 5637 5636 5635 5635 5635 5634 5635 5636 5638 5639 5640 5642 5644 5643 5643 5641 5638 5636 5635 5636 5638 5641 5642 5643 5644 5646 5647 5649 5650 5650 5651 5651 5652 5652 5653 5653 5654
5624 5624 5624 5624 5625 5627 5626 5624 5623 5623 5623 5623 5624 5626 5629 5631 5633 5635 5635 5634 5634 5631 5628 5626 5624 5625 5625 5627 5627 5629 5631 5632 5634 5635 5636 5637 5638 5639 5640 5640 5641 5641 5643
5617 5617 5615 5615 5615 5616 5615 5616 5615 5614 5615 5616 5615 5616 5619 5621 5624 5625 5626 5626 5626 5623 5619 5617 5615 5615 5614 5615 5616 5619 5618 5619 5618 5622 5623 5624 5625 5625 5627 5628 5628 5630 5632
5613 5611 5609 5608 5607 5607 5608 5609 5609 5608 5607 5607 5607 5609 5611 5612 5614 5615 5615 5616 5615 5615 5615 5612 5609 5608 5607 5607 5607 5607 5607 5606 5605 5607 5610 5610 5612 5613 5615 5616 5617 5618 5621
5609 5606 5604 5603 5602 5602 5603 5603 5603 5602 5600 5599 5600 5601 5601 5602 5605 5606 5606 5606 5605 5606 5606 5606 5604 5602 5602 5601 5600 5599 5598 5597 5597 5598 5597 5595 5597 5599 5603 5604 5605 5606 5608
5606 5604 5601 5599 5597 5597 5599 5599 5598 5596 5593 5592 5593 5594 5596 5595 5597 5600 5599 5597 5597 5597 5601 5601 5600 5598 5597 5596 5594 5592 5588 5585 5581 5582 5583 5580 5581 5583 5587 5590 5592 5594 5597
5604 5602 5598 5595 5594 5593 5594 5594 5594 5591 5587 5585 5585 5587 5590 5590 5591 5593 5591 5590 5588 5587 5590 5591 5590 5590 5588 5587 5585 5582 5578 5573 5569 5566 5568 5566 5566 5566 5569 5574 5578 5581 5584